B5901 ZSSS-ZSHC

Flight info

Callsign B5901
Flight time 0h 39m
Altitude 17700
Route AND71D AND B221 SUPAR SUP91A
Aircraft A333/H-SDE3GHIJ2J3J5M1RVWXY/LB2D1

Departure

Time 2026-04-28 14:08
Airport Shanghai Hongqiao International Airport (ZSSS)

Arrival

Time 2026-04-28 14:47
Airport Hangzhou Xiaoshan International Airport (ZSHC)
Time Latitude Longitude Altitude Speed Heading
2026-04-28 13:54 31.19320 121.32755 23 ft 0 kts 356°
2026-04-28 14:01 31.19318 121.32755 23 ft 2 kts 356°
2026-04-28 14:02 31.19244 121.32758 23 ft 7 kts 24°
2026-04-28 14:02 31.19232 121.32742 23 ft 2 kts 103°
2026-04-28 14:02 31.19234 121.32737 23 ft 0 kts 88°
2026-04-28 14:03 31.19234 121.32739 23 ft 0 kts 88°
2026-04-28 14:04 31.19234 121.32742 23 ft 0 kts 88°
2026-04-28 14:04 31.19234 121.32750 23 ft 3 kts 88°
2026-04-28 14:04 31.19239 121.32867 23 ft 25 kts 86°
2026-04-28 14:04 31.19192 121.33005 23 ft 10 kts 166°
2026-04-28 14:05 31.19175 121.33067 23 ft 15 kts 100°
2026-04-28 14:05 31.19109 121.33091 23 ft 11 kts 177°
2026-04-28 14:05 31.19024 121.33096 23 ft 15 kts 177°
2026-04-28 14:05 31.18814 121.33108 24 ft 38 kts 177°
2026-04-28 14:06 31.18593 121.33118 23 ft 33 kts 176°
2026-04-28 14:06 31.18388 121.33130 23 ft 21 kts 176°
2026-04-28 14:06 31.18340 121.33252 23 ft 18 kts 85°
2026-04-28 14:06 31.18413 121.33319 23 ft 15 kts 357°
2026-04-28 14:07 31.18424 121.33318 23 ft 0 kts 357°
2026-04-28 14:07 31.18433 121.33318 23 ft 8 kts 358°
2026-04-28 14:07 31.18808 121.33299 24 ft 105 kts 357°
2026-04-28 14:07 31.19816 121.33239 123 ft 175 kts 359°
2026-04-28 14:08 31.21008 121.33146 787 ft 196 kts 359°
2026-04-28 14:08 31.22219 121.33369 2073 ft 203 kts 21°
2026-04-28 14:08 31.23530 121.33521 3213 ft 216 kts
2026-04-28 14:08 31.24553 121.33241 2934 ft 248 kts 342°
2026-04-28 14:09 31.26129 121.31490 2993 ft 250 kts 303°
2026-04-28 14:09 31.26500 121.29523 3053 ft 270 kts 272°
2026-04-28 14:09 31.26436 121.27561 4053 ft 267 kts 278°
2026-04-28 14:09 31.26815 121.25654 4922 ft 256 kts 293°
2026-04-28 14:10 31.27412 121.23672 5298 ft 275 kts 281°
2026-04-28 14:10 31.27294 121.21576 6442 ft 268 kts 251°
2026-04-28 14:10 31.26397 121.19566 6907 ft 287 kts 230°
2026-04-28 14:10 31.25175 121.17657 6836 ft 290 kts 229°
2026-04-28 14:11 31.24016 121.15806 6883 ft 288 kts 230°
2026-04-28 14:11 31.22821 121.13904 6863 ft 291 kts 229°
2026-04-28 14:11 31.21349 121.12300 6850 ft 279 kts 205°
2026-04-28 14:11 31.19560 121.11656 6878 ft 266 kts 179°
2026-04-28 14:12 31.17711 121.11866 6887 ft 265 kts 168°
2026-04-28 14:12 31.15804 121.12102 6897 ft 292 kts 169°
2026-04-28 14:12 31.13627 121.12375 6906 ft 333 kts 171°
2026-04-28 14:12 31.11189 121.12650 6887 ft 350 kts 171°
2026-04-28 14:13 31.08814 121.12914 6826 ft 347 kts 171°
2026-04-28 14:13 31.06508 121.13172 6891 ft 332 kts 171°
2026-04-28 14:13 31.04193 121.13432 6832 ft 334 kts 172°
2026-04-28 14:13 31.01949 121.13683 6883 ft 320 kts 172°
2026-04-28 14:14 30.99861 121.13916 6853 ft 301 kts 172°
2026-04-28 14:14 30.97880 121.14137 6833 ft 283 kts 171°
2026-04-28 14:14 30.96046 121.14342 6849 ft 267 kts 171°
2026-04-28 14:14 30.94236 121.14547 6849 ft 260 kts 171°
2026-04-28 14:15 30.92451 121.14747 6861 ft 260 kts 171°
2026-04-28 14:15 30.90656 121.14947 6863 ft 260 kts 171°
2026-04-28 14:15 30.88854 121.15150 6865 ft 260 kts 171°
2026-04-28 14:15 30.87038 121.15352 6862 ft 259 kts 171°
2026-04-28 14:16 30.85221 121.15556 6863 ft 260 kts 171°
2026-04-28 14:16 30.83430 121.15755 6872 ft 260 kts 171°
2026-04-28 14:16 30.81630 121.15956 6852 ft 259 kts 171°
2026-04-28 14:16 30.79784 121.16163 6855 ft 260 kts 171°
2026-04-28 14:17 30.77986 121.16364 6855 ft 258 kts 171°
2026-04-28 14:17 30.76182 121.16563 6840 ft 257 kts 171°
2026-04-28 14:17 30.74391 121.16764 6858 ft 259 kts 171°
2026-04-28 14:17 30.72583 121.16964 6851 ft 259 kts 172°
2026-04-28 14:18 30.70753 121.17168 6851 ft 257 kts 172°
2026-04-28 14:18 30.68953 121.17368 6863 ft 263 kts 171°
2026-04-28 14:18 30.67170 121.17565 6851 ft 257 kts 172°
2026-04-28 14:18 30.65371 121.17766 6849 ft 258 kts 172°
2026-04-28 14:19 30.63576 121.17964 6856 ft 257 kts 172°
2026-04-28 14:19 30.61805 121.18162 6851 ft 257 kts 172°
2026-04-28 14:19 30.60023 121.18360 6855 ft 258 kts 171°
2026-04-28 14:19 30.58231 121.18559 6849 ft 261 kts 171°
2026-04-28 14:20 30.56413 121.18762 6854 ft 260 kts 171°
2026-04-28 14:20 30.54623 121.18961 6837 ft 257 kts 172°
2026-04-28 14:20 30.52859 121.19157 6854 ft 260 kts 172°
2026-04-28 14:20 30.51085 121.19352 6841 ft 254 kts 172°
2026-04-28 14:21 30.49345 121.19546 6850 ft 257 kts 172°
2026-04-28 14:21 30.47548 121.19746 6845 ft 257 kts 172°
2026-04-28 14:21 30.45772 121.19942 6849 ft 257 kts 172°
2026-04-28 14:21 30.43988 121.20141 6845 ft 256 kts 172°
2026-04-28 14:22 30.42206 121.20338 6847 ft 257 kts 173°
2026-04-28 14:22 30.40420 121.20534 6847 ft 255 kts 172°
2026-04-28 14:22 30.38652 121.20729 6850 ft 258 kts 172°
2026-04-28 14:22 30.36872 121.20927 6849 ft 258 kts 172°
2026-04-28 14:23 30.35088 121.21124 6837 ft 258 kts 173°
2026-04-28 14:23 30.33293 121.21321 6829 ft 258 kts 172°
2026-04-28 14:23 30.31604 121.21510 6845 ft 256 kts 172°
2026-04-28 14:23 30.29897 121.21698 6848 ft 269 kts 173°
2026-04-28 14:24 30.27967 121.21909 6887 ft 310 kts 174°
2026-04-28 14:24 30.26576 121.21880 6861 ft 337 kts 185°
2026-04-28 14:24 30.23800 121.20699 6788 ft 340 kts 210°
2026-04-28 14:24 30.22288 121.18964 6821 ft 324 kts 232°
2026-04-28 14:25 30.21408 121.16851 6842 ft 309 kts 244°
2026-04-28 14:25 30.20535 121.14776 6825 ft 289 kts 236°
2026-04-28 14:25 30.19554 121.12959 6830 ft 278 kts 232°
2026-04-28 14:25 30.18551 121.11248 6834 ft 276 kts 231°
2026-04-28 14:26 30.17530 121.09578 6839 ft 275 kts 230°
2026-04-28 14:26 30.16409 121.07786 6845 ft 275 kts 229°
2026-04-28 14:26 30.15285 121.06008 6845 ft 273 kts 229°
2026-04-28 14:26 30.14200 121.04309 6843 ft 273 kts 229°
2026-04-28 14:27 30.13148 121.02663 6841 ft 273 kts 229°
2026-04-28 14:27 30.12020 121.00904 6842 ft 272 kts 229°
2026-04-28 14:27 30.10931 120.99210 6836 ft 274 kts 229°
2026-04-28 14:27 30.09814 120.97472 6843 ft 274 kts 229°
2026-04-28 14:28 30.08670 120.95691 6844 ft 274 kts 229°
2026-04-28 14:28 30.07520 120.93903 6846 ft 275 kts 229°
2026-04-28 14:28 30.06440 120.92223 6843 ft 274 kts 229°
2026-04-28 14:28 30.05360 120.90550 6843 ft 274 kts 229°
2026-04-28 14:29 30.04317 120.88930 6842 ft 274 kts 229°
2026-04-28 14:29 30.03274 120.87250 6840 ft 277 kts 234°
2026-04-28 14:29 30.02695 120.85300 6830 ft 286 kts 259°
2026-04-28 14:29 30.02872 120.83109 6841 ft 295 kts 284°
2026-04-28 14:30 30.03840 120.81005 6843 ft 296 kts 301°
2026-04-28 14:30 30.04776 120.78890 6854 ft 297 kts 289°
2026-04-28 14:30 30.05546 120.76677 6849 ft 296 kts 289°
2026-04-28 14:30 30.06337 120.74441 6828 ft 296 kts 289°
2026-04-28 14:31 30.07122 120.72222 6857 ft 298 kts 290°
2026-04-28 14:31 30.07896 120.70038 6847 ft 298 kts 289°
2026-04-28 14:31 30.08671 120.67841 6853 ft 297 kts 290°
2026-04-28 14:31 30.09459 120.65608 6850 ft 297 kts 290°
2026-04-28 14:32 30.10225 120.63442 6848 ft 297 kts 290°
2026-04-28 14:32 30.10966 120.61340 6878 ft 297 kts 290°
2026-04-28 14:32 30.11708 120.59237 6884 ft 296 kts 290°
2026-04-28 14:32 30.12465 120.57083 6882 ft 299 kts 290°
2026-04-28 14:33 30.13227 120.54923 6880 ft 298 kts 290°
2026-04-28 14:33 30.14004 120.52711 6882 ft 299 kts 290°
2026-04-28 14:33 30.14774 120.50523 6883 ft 299 kts 290°
2026-04-28 14:33 30.15538 120.48315 6889 ft 297 kts 288°
2026-04-28 14:34 30.15605 120.44545 6607 ft 280 kts 245°
2026-04-28 14:34 30.14355 120.42110 6341 ft 268 kts 234°
2026-04-28 14:34 30.13790 120.40959 6184 ft 268 kts 237°
2026-04-28 14:35 30.12728 120.38657 5887 ft 266 kts 238°
2026-04-28 14:35 30.11901 120.36812 5648 ft 266 kts 239°
2026-04-28 14:35 30.11058 120.34925 5413 ft 266 kts 239°
2026-04-28 14:35 30.10273 120.33164 5172 ft 265 kts 239°
2026-04-28 14:36 30.09519 120.31472 4943 ft 266 kts 240°
2026-04-28 14:36 30.08763 120.29777 4725 ft 267 kts 240°
2026-04-28 14:36 30.07988 120.28037 4500 ft 270 kts 241°
2026-04-28 14:36 30.07165 120.26196 4186 ft 270 kts 242°
2026-04-28 14:37 30.06305 120.24265 3853 ft 268 kts 242°
2026-04-28 14:37 30.05574 120.22274 3483 ft 266 kts 261°
2026-04-28 14:37 30.05642 120.20229 3144 ft 249 kts 294°
2026-04-28 14:37 30.06533 120.18606 2979 ft 236 kts 326°
2026-04-28 14:38 30.07771 120.17596 2996 ft 228 kts 336°
2026-04-28 14:38 30.09170 120.16908 2946 ft 206 kts 359°
2026-04-28 14:38 30.10433 120.17187 2958 ft 175 kts 35°
2026-04-28 14:38 30.11272 120.18070 2995 ft 152 kts 51°
2026-04-28 14:39 30.11876 120.18997 2987 ft 142 kts 55°
2026-04-28 14:39 30.12385 120.19923 2990 ft 135 kts 58°
2026-04-28 14:39 30.12818 120.20779 2993 ft 121 kts 58°
2026-04-28 14:39 30.13198 120.21569 2948 ft 110 kts 60°
2026-04-28 14:40 30.13562 120.22355 2989 ft 113 kts 60°
2026-04-28 14:40 30.13686 120.22627 2988 ft 110 kts 59°
2026-04-28 14:40 30.14266 120.23910 3020 ft 115 kts 61°
2026-04-28 14:40 30.14613 120.24685 2968 ft 112 kts 61°
2026-04-28 14:41 30.14943 120.25427 2991 ft 110 kts 62°
2026-04-28 14:41 30.15272 120.26165 2995 ft 112 kts 62°
2026-04-28 14:41 30.15624 120.26991 2877 ft 114 kts 62°
2026-04-28 14:41 30.15945 120.27743 2736 ft 111 kts 62°
2026-04-28 14:42 30.16275 120.28490 2591 ft 109 kts 59°
2026-04-28 14:42 30.16614 120.29240 2456 ft 109 kts 60°
2026-04-28 14:42 30.16934 120.29960 2328 ft 110 kts 60°
2026-04-28 14:42 30.17265 120.30705 2182 ft 110 kts 60°
2026-04-28 14:43 30.17607 120.31469 2031 ft 111 kts 58°
2026-04-28 14:43 30.17944 120.32217 1900 ft 112 kts 59°
2026-04-28 14:43 30.18284 120.32983 1746 ft 113 kts 59°
2026-04-28 14:43 30.18629 120.33758 1604 ft 113 kts 59°
2026-04-28 14:44 30.18966 120.34510 1460 ft 114 kts 58°
2026-04-28 14:44 30.19308 120.35271 1309 ft 114 kts 59°
2026-04-28 14:44 30.19641 120.36021 1165 ft 115 kts 59°
2026-04-28 14:44 30.19980 120.36777 1021 ft 117 kts 59°
2026-04-28 14:45 30.20335 120.37575 872 ft 117 kts 59°
2026-04-28 14:45 30.20679 120.38348 724 ft 119 kts 59°
2026-04-28 14:45 30.21030 120.39140 575 ft 118 kts 59°
2026-04-28 14:45 30.21258 120.39652 481 ft 120 kts 59°
2026-04-28 14:46 30.21731 120.40716 281 ft 120 kts 60°
2026-04-28 14:46 30.22112 120.41556 133 ft 122 kts 60°
2026-04-28 14:46 30.22497 120.42417 42 ft 111 kts 62°
2026-04-28 14:46 30.22754 120.42996 40 ft 51 kts 62°
2026-04-28 14:47 30.22890 120.43299 40 ft 46 kts 63°
2026-04-28 14:47 30.23042 120.43615 43 ft 44 kts 46°
2026-04-28 14:47 30.23214 120.43768 43 ft 25 kts 35°
2026-04-28 14:47 30.23341 120.43896 42 ft 24 kts 57°
2026-04-28 14:48 30.23425 120.44058 40 ft 23 kts 44°
2026-04-28 14:48 30.23531 120.44040 41 ft 12 kts 333°
2026-04-28 14:48 30.23609 120.43994 42 ft 12 kts 333°
2026-04-28 14:48 30.23682 120.43951 43 ft 13 kts 333°
2026-04-28 14:49 30.23784 120.43892 43 ft 19 kts 333°
2026-04-28 14:49 30.23919 120.43812 42 ft 24 kts 333°
2026-04-28 14:49 30.24085 120.43714 41 ft 29 kts 332°
2026-04-28 14:49 30.24282 120.43599 40 ft 34 kts 333°
2026-04-28 14:50 30.24472 120.43486 40 ft 22 kts 333°
2026-04-28 14:50 30.24574 120.43398 40 ft 13 kts 254°
2026-04-28 14:50 30.24530 120.43301 40 ft 15 kts 243°
2026-04-28 14:50 30.24463 120.43148 40 ft 28 kts 243°
2026-04-28 14:51 30.24361 120.42916 43 ft 33 kts 243°
2026-04-28 14:51 30.24267 120.42718 43 ft 29 kts 245°
2026-04-28 14:51 30.24208 120.42584 43 ft 18 kts 244°
2026-04-28 14:51 30.24128 120.42548 43 ft 11 kts 153°
2026-04-28 14:52 30.24054 120.42590 43 ft 12 kts 153°
2026-04-28 14:52 30.23975 120.42635 43 ft 11 kts 153°
2026-04-28 14:52 30.23969 120.42687 43 ft 5 kts 56°
2026-04-28 14:52 30.23975 120.42698 43 ft 0 kts 59°
2026-04-28 14:53 30.23976 120.42701 43 ft 3 kts 60°
2026-04-28 14:53 30.23976 120.42700 43 ft 1 kts 60°
2026-04-28 14:53 30.23975 120.42697 43 ft 0 kts 60°